Flag for South Africa Weather past 2 weeks in Cape Town, South Africa

Now
64 °F

Clear.


Feels Like: 64 °F
Forecast: 60 / 78 °F
Wind: 18 mph from Southeast

Location: Cape Town International Airport

Current Time: Oct 25, 2014 at 3:59:47 AM

Latest Report: Oct 25, 2014 at 3:00 AM


Visibility: 10 mi

Pressure: 30.01 "Hg

Humidity: 68%

Dew point: 54 °F

Location of Cape TownLocation

Historic Weather in Cape Town — Graph

°F

Cape Town temperature yesterday

Maximum temperature yesterday: 77 °F (at 12:00 PM)
Minimum temperature yesterday: 63 °F (at 6:00 AM)
Average temperature yesterday: 69 °F

Past Weeks' High & Low Weather Summary

 TemperatureHumidityPressure
High82 °F (Oct 13, 3:00 PM)94% (Oct 12, 5:00 AM)30.27 "Hg (Oct 12, 5:00 AM)
Low46 °F (Oct 17, 7:00 AM)24% (Oct 18, 11:00 AM)29.86 "Hg (Oct 14, 3:00 AM)
Average65 °F67%30.04 "Hg
* Reported Oct 10 3:00 AM — Oct 25 3:00 AM, Cape Town, Weather by CustomWeather, © 2014

Note: Actual official high and low records may vary slightly from our data, if they occured in-between our weather recording intervals... More about our weather records

Advertising

Cape Town weather history for previous 24 hours

 ConditionsComfort  
Time TempWeatherWind HumidityBarometerVisibility
3:00 AM
Oct 25
64 °FClear.18 mph68%30.01 "Hg10 mi
2:00 AM66 °FClear.20 mph60%30.01 "Hg10 mi
1:00 AM66 °FClear.25 mph64%30.04 "Hg10 mi
12:00 AM64 °FClear.26 mph73%30.04 "Hg10 mi
11:00 PM
Oct 24
66 °FClear.26 mph68%30.04 "Hg10 mi
10:00 PM66 °FPassing clouds.26 mph68%30.04 "HgN/A
9:00 PM66 °FPassing clouds.23 mph68%30.04 "HgN/A
8:00 PM66 °FPassing clouds.21 mph68%30.01 "HgN/A
7:00 PM66 °FPassing clouds.22 mph73%30.01 "HgN/A
6:00 PM70 °FPassing clouds.23 mph64%29.98 "HgN/A
5:00 PM70 °FPassing clouds.28 mph60%29.98 "HgN/A
4:00 PM72 °FPassing clouds.28 mph61%29.98 "HgN/A
3:00 PM73 °FPassing clouds.26 mph57%30.01 "HgN/A
2:00 PM75 °FPassing clouds.25 mph54%30.01 "HgN/A
1:00 PM77 °FPassing clouds.22 mph47%30.01 "HgN/A
12:00 PM77 °FPassing clouds.23 mph51%30.01 "HgN/A
11:00 AM75 °FPassing clouds.23 mph50%30.04 "HgN/A
10:00 AM73 °FPassing clouds.23 mph57%30.04 "HgN/A
9:00 AM72 °FPassing clouds.21 mph61%30.04 "HgN/A
8:00 AM68 °FPassing clouds.17 mph64%30.04 "HgN/A
7:00 AM64 °FPassing clouds.18 mph73%30.01 "HgN/A
6:00 AM63 °FPassing clouds.14 mph77%30.01 "HgN/A
5:00 AM64 °FSunny.15 mph73%29.98 "Hg10 mi
4:00 AM64 °FClear.14 mph73%29.98 "Hg10 mi
3:00 AM64 °FClear.22 mph68%29.98 "Hg10 mi
Weather by CustomWeather, © 2014

See weather overviewHow to use our weather pages